This is the latest recevied weather packets stored in our database for station/object G4KVI. If no packets are shown the sender has not sent any weather packets the latest 10 day(s).
| Time | Temp. | Humidity | Pressure | Rain* | Wind** | Luminosity | Snow |
|---|---|---|---|---|---|---|---|
| 1778074203 | 14.44° C | 40% | 1015.9 hPa | 0 mm | - | 516 W/m² | - |
| 1778073903 | 15° C | 43% | 1015.9 hPa | 0 mm | - | 807 W/m² | - |
| 1778073603 | 15° C | 43% | 1015.8 hPa | 0 mm | - | 806 W/m² | - |
| 1778073304 | 14.44° C | 44% | 1015.9 hPa | 0 mm | - | 826 W/m² | - |
| 1778073004 | 14.44° C | 43% | 1015.9 hPa | 0 mm | - | 817 W/m² | - |
| 1778072704 | 14.44° C | 43% | 1015.8 hPa | 0 mm | - | 657 W/m² | - |
| 1778072404 | 13.33° C | 46% | 1016 hPa | 0 mm | - | 854 W/m² | - |
| 1778072104 | 13.33° C | 46% | 1016.1 hPa | 0 mm | - | 523 W/m² | - |
| 1778071804 | 12.78° C | 46% | 1016 hPa | 0 mm | - | 799 W/m² | - |
| 1778071504 | 12.78° C | 47% | 1016.1 hPa | 0 mm | - | 168 W/m² | - |
| 1778071204 | 13.33° C | 47% | 1016 hPa | 0 mm | - | 162 W/m² | - |
| 1778070904 | 13.33° C | 47% | 1015.8 hPa | 0 mm | - | 226 W/m² | - |
| 1778070604 | 12.78° C | 49% | 1015.9 hPa | 0 mm | - | 853 W/m² | - |
| 1778070304 | 13.33° C | 46% | 1015.7 hPa | 0 mm | - | 199 W/m² | - |
| 1778070004 | 13.33° C | 45% | 1016.1 hPa | 0 mm | - | 817 W/m² | - |
| 1778069704 | 13.33° C | 44% | 1016.2 hPa | 0 mm | - | 755 W/m² | - |
| 1778069404 | 13.33° C | 42% | 1016.2 hPa | 0 mm | - | 746 W/m² | - |
| 1778069104 | 13.33° C | 42% | 1016.1 hPa | 0 mm | - | 745 W/m² | - |
| 1778068804 | 13.33° C | 43% | 1016.3 hPa | 0 mm | - | 735 W/m² | - |
| 1778068504 | 13.33° C | 43% | 1016.2 hPa | 0 mm | - | 731 W/m² | - |
| 1778068204 | 13.33° C | 44% | 1016.1 hPa | 0 mm | - | 737 W/m² | - |
| 1778067904 | 12.78° C | 45% | 1016.2 hPa | 0 mm | - | 763 W/m² | - |
| 1778067603 | 12.78° C | 44% | 1016.2 hPa | 0 mm | - | 174 W/m² | - |
| 1778067304 | 13.33° C | 46% | 1016.2 hPa | 0 mm | - | 303 W/m² | - |
| 1778067003 | 13.33° C | 46% | 1016.1 hPa | 0 mm | - | 233 W/m² | - |
* Rain latest hour (hover to see other rain measurements)
** Current wind speed in m/s (hover to see current wind gust speed)